ECMWFNIL_850_spd_021.txt.gz
Wind_Speed
13 13 14 14 15 15 15 15 16 16 16 16 16 15 15 14 14 14 14 15 15 16 16 16 15 15 14 14 15 16 17 18 19 20 22 25 27 30 33 35 36 37
13 13 13 13 14 14 15 15 16 16 16 17 17 16 16 16 16 15 15 14 14 15 16 16 16 16 15 15 15 17 18 19 19 19 21 23 25 28 30 33 35 36
14 14 15 15 16 16 16 16 16 16 16 17 17 18 18 19 19 18 18 17 16 16 16 16 16 16 16 16 16 16 17 19 20 19 20 22 23 25 27 29 32 34
14 15 16 17 17 17 17 17 17 18 18 18 18 19 19 20 21 21 21 21 21 20 19 18 18 17 17 17 18 17 17 17 18 19 21 22 22 24 25 26 29 32
14 15 16 16 16 17 18 18 19 19 19 19 19 20 20 21 21 22 23 23 24 23 23 22 21 20 20 20 20 20 20 19 18 18 20 21 21 22 24 24 26 28
15 15 16 16 16 16 17 18 18 19 19 20 20 21 21 22 22 22 23 24 24 25 25 25 24 24 23 23 22 22 22 22 22 21 21 21 21 21 21 23 25 27
13 14 15 16 17 17 18 18 18 19 20 21 21 22 23 23 23 24 24 24 24 24 25 25 26 26 25 25 25 25 24 24 25 25 25 25 24 22 21 21 23 26
15 15 16 16 17 18 19 19 20 21 22 23 23 23 24 25 25 26 26 27 27 27 26 26 26 26 26 26 26 26 26 26 26 26 27 28 28 27 25 24 24 25
18 19 19 19 20 20 21 21 22 23 24 24 25 25 26 27 28 29 29 30 30 30 30 30 29 29 28 27 27 27 27 27 27 27 28 29 29 30 29 28 28 28
18 20 21 22 23 24 25 25 26 26 26 27 27 28 28 28 29 30 31 32 33 33 34 34 34 34 34 32 30 29 29 29 29 28 28 28 29 30 30 30 30 31
17 19 21 22 23 24 25 26 27 28 29 29 30 30 31 31 32 32 33 34 35 36 36 37 37 38 38 38 37 36 35 34 33 32 31 30 30 30 30 31 31 32
18 19 21 22 23 24 25 26 27 28 29 31 32 33 34 35 36 37 37 38 38 39 40 40 41 41 41 42 42 41 41 41 40 38 37 35 34 33 32 31 32 33
19 20 21 22 23 24 25 26 27 28 30 32 33 35 37 38 39 40 41 42 43 43 43 43 44 45 45 45 45 45 45 46 46 45 44 42 40 38 37 35 34 34
23 24 24 24 24 25 26 27 28 30 31 33 35 37 38 40 42 43 44 45 46 46 46 47 47 47 48 47 47 47 47 48 49 49 49 49 48 46 44 42 40 39
28 28 28 27 28 28 29 30 32 33 35 36 37 39 40 42 43 45 47 48 49 49 49 49 50 50 50 49 49 48 49 49 50 51 52 53 53 53 51 49 47 45
30 30 30 30 31 32 33 34 36 38 39 40 41 42 43 44 45 47 48 49 50 51 52 52 52 52 52 51 51 50 50 50 51 52 53 54 55 55 56 55 54 52
31 31 31 32 33 35 36 38 40 41 43 44 45 46 47 48 49 50 50 50 51 52 53 54 54 54 54 54 53 53 52 52 52 52 53 54 54 55 56 57 57 56
30 30 32 34 36 38 39 41 42 43 45 46 47 48 49 50 52 52 53 53 53 53 54 54 54 55 55 55 55 55 54 53 53 53 53 53 53 54 56 57 57 56
30 32 34 36 38 40 41 43 44 45 46 47 48 49 50 52 53 53 54 54 54 54 54 54 54 54 53 53 54 53 53 53 52 52 51 51 52 53 54 56 56 56
32 34 37 39 40 41 43 44 44 45 46 46 47 48 50 51 52 53 54 54 54 54 55 55 55 55 53 53 53 53 53 52 50 50 51 52 52 52 53 54 55 56
34 37 39 41 42 43 44 44 44 45 45 45 46 48 49 50 52 53 54 55 55 55 56 57 58 57 55 55 54 54 53 51 48 48 50 52 54 54 54 53 53 54
37 39 41 43 44 44 45 45 45 45 46 46 47 49 50 51 52 53 54 56 56 55 56 58 59 58 56 55 54 53 51 49 48 49 50 52 54 56 56 55 53 52
40 42 43 44 45 45 45 45 45 46 47 47 48 50 52 52 53 54 55 56 57 56 55 56 59 58 54 52 52 51 48 47 49 51 52 54 56 56 55 55 54 52
42 43 44 45 44 44 44 45 45 47 48 48 49 51 53 54 54 55 57 57 55 55 53 53 56 56 52 49 49 48 46 45 47 49 52 55 57 57 56 54 55 55
43 43 44 43 43 43 43 45 46 47 48 49 50 51 53 55 55 55 58 58 54 51 50 49 50 51 48 45 44 43 40 39 40 43 47 49 51 52 54 55 56 58
43 43 43 42 42 43 44 45 46 48 49 49 51 52 53 55 55 55 57 57 53 50 49 47 46 47 45 41 38 36 34 33 35 38 41 43 44 46 50 53 55 57

ECMWFNIL_850_spd_024.txt.gz
Wind_Speed
8 8 8 9 9 10 11 12 13 13 14 15 15 16 17 17 17 16 16 16 16 16 16 16 17 17 18 18 18 17 17 18 18 20 22 24 26 28 29 30 31 32
9 8 8 8 9 9 10 11 12 13 14 15 15 16 16 17 18 18 18 18 18 18 18 18 19 19 19 19 20 20 20 20 19 19 20 21 22 25 28 30 30 31
8 8 7 7 8 9 9 10 10 11 12 13 14 15 16 17 18 19 19 20 20 20 21 21 21 21 22 22 22 22 22 23 23 22 22 21 20 22 23 26 29 30
8 8 8 7 8 8 8 8 9 10 11 12 13 14 15 16 17 18 19 20 20 21 22 22 23 23 24 24 24 24 24 25 25 26 26 25 23 23 22 22 24 26
7 7 8 8 8 9 9 9 10 11 12 13 13 14 15 16 17 18 19 20 21 22 22 23 23 24 24 25 25 26 26 26 26 27 28 28 27 27 26 25 25 24
7 7 8 9 10 11 11 12 12 13 13 14 14 15 16 16 17 18 19 20 21 23 24 25 25 26 27 28 28 28 28 29 29 29 29 30 30 29 29 29 29 28
7 7 8 9 9 11 12 13 14 15 15 16 16 17 17 18 18 19 20 20 21 22 24 25 27 28 29 30 31 32 32 32 32 32 33 33 33 33 31 31 31 32
8 8 9 10 10 11 12 13 14 15 16 17 17 18 19 20 21 21 22 23 24 25 26 27 28 29 31 32 34 35 36 36 36 37 37 38 37 37 36 34 34 34
10 11 12 13 14 14 15 15 16 16 17 17 18 19 20 21 23 24 26 27 28 29 30 31 33 34 35 36 37 38 40 40 41 41 41 41 41 41 40 39 39 38
11 13 14 15 16 17 17 18 18 18 19 20 20 21 22 23 25 27 29 30 32 33 35 36 37 38 39 40 40 41 42 43 43 43 43 44 44 44 44 43 43 43
13 14 15 16 17 17 18 18 19 20 21 22 23 24 26 27 28 30 32 34 36 37 39 40 41 42 43 43 43 43 43 43 44 44 44 44 45 46 46 45 45 46
14 15 16 17 18 18 18 19 20 21 22 23 25 26 28 30 31 33 35 37 39 41 42 44 44 45 46 46 46 45 45 45 44 44 45 45 45 46 46 47 47 48
16 18 19 19 20 20 20 21 21 22 24 25 27 28 29 31 33 35 37 39 41 43 45 46 47 48 49 49 49 48 47 47 46 46 46 47 47 47 47 48 48 49
20 21 21 22 22 22 23 23 24 25 27 28 29 30 32 34 35 37 39 41 42 44 46 47 48 50 50 50 49 49 49 49 49 49 49 49 49 49 49 49 49 50
23 24 25 25 25 25 25 26 27 28 30 31 32 33 35 36 38 40 42 43 44 45 46 47 48 49 49 48 49 49 50 50 50 50 50 51 51 51 51 51 50 51
26 27 27 27 27 27 27 28 30 31 32 33 34 35 37 38 40 42 43 45 46 47 47 47 48 48 47 47 47 49 50 51 52 52 52 53 54 54 55 54 53 52
28 29 30 29 29 28 29 31 32 34 35 35 36 37 39 40 42 43 45 46 46 47 48 48 48 48 48 48 49 49 49 50 52 54 55 55 56 56 57 58 57 55
30 31 31 31 30 30 31 33 35 36 37 38 38 39 40 41 43 44 45 45 46 47 48 49 50 50 50 51 52 52 51 50 51 54 56 57 58 58 59 60 60 59
31 32 32 31 30 31 33 35 36 37 38 39 40 41 42 43 44 44 45 45 46 47 49 50 52 53 53 54 54 54 53 51 51 55 57 58 59 60 60 60 59 59
32 32 31 30 31 32 35 36 37 38 39 40 41 42 43 44 44 45 45 46 47 49 50 52 54 54 54 55 54 53 52 50 51 53 55 56 59 59 58 58 58 58
31 30 30 31 33 35 37 38 38 39 40 40 41 42 43 44 44 45 46 47 48 50 51 54 55 53 53 53 52 50 48 46 46 49 52 55 59 59 58 57 58 58
30 30 31 32 35 37 38 39 40 40 41 41 42 42 43 44 44 45 47 48 49 50 51 55 55 52 51 51 49 46 44 42 42 45 48 52 55 55 54 54 55 54
30 30 32 35 37 38 39 40 41 41 41 41 42 43 44 45 45 46 47 48 50 50 50 53 55 52 49 48 45 42 40 39 39 41 43 45 47 48 47 48 49 48
30 32 34 36 38 39 39 40 41 41 41 41 42 44 45 45 46 48 48 48 49 49 49 50 53 50 45 44 42 38 35 35 35 37 39 40 42 43 41 42 43 42
31 33 36 37 38 38 39 40 41 41 41 41 42 44 45 46 46 48 49 48 47 48 47 46 48 48 43 39 37 33 30 30 32 36 38 38 40 41 40 38 39 39
33 35 36 37 38 38 39 40 40 40 41 42 43 44 45 46 46 46 48 48 46 46 45 43 44 44 39 35 32 29 26 27 31 34 37 39 40 42 42 42 41 39

ECMWFNIL_850_spd_030.txt.gz
Wind_Speed
3 4 5 5 6 6 6 6 6 6 7 7 8 8 9 9 8 8 8 8 9 9 9 9 10 10 11 11 12 13 14 15 16 17 18 18 19 20 21 22 23 24
3 4 5 5 5 5 6 6 6 7 7 8 9 9 10 9 9 9 9 8 8 9 9 10 11 11 12 12 12 13 14 15 16 17 18 19 21 22 23 25 26 27
4 5 5 5 5 6 6 6 6 7 7 8 8 9 9 9 9 9 9 9 10 10 11 12 13 14 14 14 15 16 16 17 18 19 19 21 22 24 25 27 28 29
6 6 6 6 6 6 7 6 6 7 7 7 8 8 9 9 9 9 10 10 11 12 13 14 14 15 16 17 17 19 20 21 22 23 23 24 25 26 27 29 30 31
7 7 7 7 6 6 6 5 6 6 6 7 7 8 8 9 9 10 10 11 11 12 13 14 15 16 17 18 19 20 21 23 24 25 27 27 28 30 31 33 34 34
8 7 7 6 5 5 5 5 6 7 8 9 9 9 10 10 11 11 12 12 13 14 14 15 16 17 19 20 21 22 22 24 25 26 27 28 29 31 33 35 37 38
7 7 6 6 5 5 6 7 8 9 10 11 12 12 13 13 14 15 15 16 16 17 18 18 19 20 21 22 23 24 25 26 27 28 28 29 30 30 31 33 36 38
7 6 5 5 5 6 8 9 11 12 13 14 15 15 16 17 18 18 19 19 20 20 21 22 23 23 24 26 27 27 28 29 30 31 31 32 32 33 33 34 36 37
6 5 5 6 7 8 10 11 13 14 15 16 17 18 20 21 21 22 22 23 23 23 24 25 26 27 27 29 30 31 32 32 33 34 34 35 35 36 36 37 38 39
6 6 7 8 9 10 11 13 14 16 17 19 20 22 23 24 25 26 26 26 27 27 28 28 29 30 31 32 33 34 35 35 36 36 37 37 38 38 39 40 41 42
7 8 8 9 10 11 13 14 16 18 20 22 23 24 26 26 27 29 29 29 30 30 31 31 32 33 34 35 36 36 38 38 39 39 39 40 40 41 42 42 43 45
9 9 10 11 12 13 15 16 19 21 23 24 26 26 27 28 28 29 30 30 31 31 32 33 34 35 36 37 38 39 39 40 41 41 42 42 42 43 44 45 46 47
11 11 12 13 14 16 17 19 21 23 25 27 28 28 29 29 29 30 30 31 31 32 33 34 35 36 37 38 39 40 41 42 42 43 43 43 43 44 44 46 47 48
13 13 14 15 16 18 19 21 23 25 28 30 30 31 31 31 31 32 32 32 32 33 34 35 36 37 38 39 40 41 42 43 43 44 44 44 44 45 45 46 47 48
15 15 15 17 18 20 21 23 25 27 30 31 32 32 33 33 33 34 34 34 34 34 35 36 37 38 40 41 42 43 43 44 44 45 45 46 46 46 47 48 49 49
18 17 18 19 20 22 23 24 26 28 31 33 33 33 34 34 35 36 36 36 36 36 37 38 39 40 41 41 42 43 44 44 45 45 46 47 48 49 49 50 51 52
20 20 21 22 22 23 25 25 27 29 32 34 34 35 35 35 36 37 37 37 37 38 39 40 41 41 41 42 42 42 44 44 46 46 47 48 49 50 52 52 53 53
23 24 24 24 25 25 26 26 28 30 32 34 35 36 36 37 37 37 37 38 39 40 41 41 41 41 41 42 42 42 43 44 46 47 48 49 50 51 52 53 53 53
26 27 27 27 27 27 27 27 28 30 33 35 36 37 37 38 38 38 38 39 40 41 41 41 41 41 41 42 42 43 43 44 45 47 48 49 50 50 51 52 52 52
29 29 29 29 29 28 28 28 29 31 33 35 36 37 38 38 38 38 38 39 40 41 42 41 41 41 41 41 42 43 43 44 45 47 48 48 49 49 50 50 50 49
31 31 30 30 29 28 28 29 30 33 34 35 36 37 38 38 38 39 39 40 41 41 41 41 41 41 41 41 42 42 43 44 45 46 47 48 49 49 48 49 48 47
32 31 31 30 29 28 28 30 32 34 35 36 37 38 39 39 39 39 40 41 41 41 41 41 41 40 40 41 42 42 43 44 45 46 47 48 48 48 47 47 46 45
31 31 30 29 28 28 29 31 33 35 36 37 38 39 39 39 39 40 41 41 41 41 41 41 41 40 40 40 41 42 42 43 45 46 47 47 47 46 46 45 43 41
30 30 29 29 28 29 31 33 35 36 37 38 39 40 40 40 40 40 41 41 40 40 40 41 41 40 39 40 41 40 41 42 44 45 46 46 46 45 44 43 41 39
29 29 29 28 29 31 33 35 36 37 37 38 39 40 40 39 40 40 41 40 39 39 39 40 40 40 39 39 40 39 40 40 42 43 44 44 43 43 43 42 40 39
29 29 29 29 31 33 34 36 37 37 37 38 39 39 39 39 40 40 40 39 38 38 39 39 39 39 39 39 39 39 38 38 39 41 41 42 42 41 42 43 42 41

ECMWFNIL_850_spd_033.txt.gz
Wind_Speed
3 2 2 3 3 3 4 4 5 5 6 7 7 8 9 10 10 10 10 10 10 9 9 9 9 10 10 10 11 11 12 12 13 13 14 15 15 16 17 18 19 20
1 1 1 2 2 2 3 3 4 5 6 7 7 8 9 10 10 10 11 11 11 11 11 11 12 12 13 13 13 14 14 15 15 15 16 17 17 18 19 19 20 21
1 2 2 2 2 2 3 4 4 5 6 6 7 7 8 9 10 10 11 11 11 12 12 13 14 15 16 16 17 18 18 19 19 20 20 21 22 22 23 23 24 24
4 4 4 4 4 4 5 5 5 5 5 6 6 7 8 8 9 10 11 12 12 13 14 15 16 16 17 18 18 19 19 20 21 21 22 23 24 25 26 26 27 27
6 6 6 6 6 6 6 6 6 5 5 5 6 6 7 8 9 10 11 12 13 14 15 16 16 17 17 18 18 19 20 20 21 21 22 23 23 25 26 26 27 28
9 9 8 8 8 7 6 5 5 4 4 4 4 5 7 8 9 10 11 12 13 14 15 16 17 17 18 19 19 20 20 21 22 22 23 23 24 25 26 27 27 28
11 10 9 8 7 6 5 4 3 3 4 5 6 7 8 9 10 11 12 13 14 15 16 17 18 18 19 20 20 21 22 23 23 24 24 25 25 26 27 27 29 29
12 11 10 8 7 5 5 4 4 4 5 6 8 9 10 11 12 13 14 15 16 17 18 19 19 20 21 21 22 23 23 24 25 25 26 27 27 28 29 29 30 31
13 12 10 8 7 5 4 4 4 5 6 8 10 11 12 14 15 16 17 18 18 19 20 21 22 22 23 23 24 25 25 26 26 27 28 29 29 30 31 32 33 33
15 13 10 7 6 4 4 4 5 6 8 10 12 13 15 17 18 19 20 21 21 22 23 24 24 25 26 26 27 28 29 29 29 30 30 31 32 33 34 35 35 36
15 12 9 7 6 5 6 6 7 9 10 12 14 16 18 19 21 22 23 24 24 25 26 27 27 28 28 29 29 30 31 32 32 33 34 34 35 36 37 38 38 38
13 11 9 8 8 8 8 8 9 11 12 14 16 18 20 22 23 24 25 25 26 27 27 28 28 29 29 30 31 31 32 33 34 35 36 36 37 38 39 40 40 40
13 11 11 10 10 10 9 10 10 12 14 15 17 19 21 23 24 26 27 27 28 28 28 29 29 29 30 31 32 33 34 35 35 36 37 38 38 39 40 40 40 40
14 13 13 13 12 11 11 11 11 13 15 17 19 20 22 24 26 28 29 30 30 30 30 30 30 30 31 32 33 34 35 36 37 37 38 39 39 40 40 40 41 41
15 16 16 15 14 13 12 12 13 14 16 17 19 21 23 25 27 29 31 32 33 32 31 31 31 31 32 33 35 36 36 37 37 38 39 40 40 40 40 40 40 41
18 18 18 17 16 15 15 15 15 16 17 19 20 22 24 26 28 30 32 34 34 34 33 33 32 33 33 34 35 36 37 37 38 38 39 40 41 41 41 41 41 41
20 21 21 20 19 18 17 17 18 19 19 21 22 24 25 27 28 31 33 35 36 36 35 34 33 33 34 35 36 36 36 37 38 39 39 40 40 40 41 41 41 42
22 23 23 22 21 20 20 20 21 21 21 23 24 25 26 28 29 32 34 36 36 36 35 34 34 34 34 35 35 35 35 36 37 38 39 39 39 40 40 41 42 43
25 26 25 25 24 24 24 23 23 23 24 25 25 26 28 29 31 33 35 36 36 36 35 34 33 34 34 35 35 35 35 35 36 37 37 38 38 39 40 41 42 43
27 28 28 28 27 27 27 26 26 26 26 26 27 28 29 30 32 34 35 36 36 36 35 34 33 34 34 34 34 34 34 35 36 37 37 37 38 39 40 41 42 43
29 30 30 31 31 30 30 29 28 27 27 27 28 29 30 31 33 35 36 36 37 36 35 34 33 33 33 34 34 34 34 35 36 36 37 38 39 39 40 41 42 43
31 32 33 33 33 32 32 30 29 28 28 28 29 29 31 32 34 36 36 37 37 36 34 34 34 33 33 33 33 33 34 35 36 37 38 39 39 40 41 41 42 42
32 32 33 33 33 32 32 31 29 28 28 29 30 31 32 33 35 36 37 37 37 35 34 34 34 33 32 33 33 33 34 35 36 37 38 39 39 40 41 41 41 40
27 28 29 29 30 30 30 30 29 28 29 29 30 32 33 34 35 36 37 37 35 34 34 34 34 33 32 32 32 32 33 34 35 37 37 38 39 40 40 40 40 39
23 24 25 26 28 29 29 29 29 29 29 30 31 33 34 35 36 36 37 36 34 33 34 34 34 33 32 32 32 32 32 33 35 36 37 38 38 39 39 39 39 39
23 24 25 26 27 28 28 29 29 29 30 31 32 33 34 35 35 36 36 35 33 33 34 33 33 33 32 32 32 31 31 32 33 34 35 36 37 38 39 39 39 39

ECMWFNIL_850_spd_036.txt.gz
Wind_Speed
6 5 4 3 2 1 1 1 2 2 2 3 4 5 6 7 8 8 9 9 10 10 11 11 12 12 13 13 14 14 14 15 16 16 16 17 17 17 18 18 19 19
5 4 3 2 1 1 1 1 1 2 3 4 5 6 7 8 8 9 10 10 11 12 12 13 14 14 15 16 17 18 18 19 20 20 21 21 22 22 22 22 23 23
5 5 4 4 4 4 4 3 3 4 5 6 6 7 8 8 8 9 10 10 11 12 13 14 15 15 16 17 18 19 19 20 21 21 22 23 23 24 25 25 25 26
7 6 6 6 6 6 5 5 5 6 6 7 7 8 8 8 9 9 10 11 12 13 14 14 15 16 17 17 18 18 19 20 20 21 22 22 23 23 24 24 25 25
9 8 8 8 8 7 7 7 8 8 9 9 9 9 9 9 10 10 11 12 12 13 14 14 15 16 16 17 18 19 19 20 21 21 22 22 22 23 23 23 24 24
11 10 10 9 9 9 9 10 10 10 10 10 9 10 10 10 10 10 11 11 12 13 13 14 15 15 16 17 18 19 19 20 21 21 22 22 23 23 23 24 24 24
12 11 11 11 11 11 11 12 11 11 10 10 10 9 9 9 9 9 10 11 12 12 13 14 15 16 17 17 18 19 19 20 21 21 22 22 23 23 24 24 25 25
13 12 12 12 12 13 13 12 11 11 10 10 8 7 7 7 7 8 10 11 12 13 14 15 16 17 18 19 19 20 20 21 21 21 22 22 23 23 24 25 26 26
15 14 14 14 14 14 13 12 12 11 10 8 6 5 5 6 7 9 11 12 14 15 17 18 19 19 20 20 21 21 21 22 22 22 23 23 24 24 25 25 26 27
17 16 15 15 15 14 14 13 12 11 9 7 6 5 6 7 9 11 12 14 15 17 19 20 21 22 23 23 23 23 24 24 24 25 25 25 26 26 26 27 27 28
18 17 16 16 16 16 15 14 13 11 9 8 7 7 8 9 10 12 14 16 17 19 21 23 24 25 26 26 26 26 26 26 26 27 27 27 28 28 28 29 29 30
19 18 17 17 17 17 16 15 13 11 10 8 8 8 9 11 12 14 16 18 19 21 23 25 27 28 28 28 28 28 28 28 28 28 28 28 29 29 29 30 30 31
19 18 18 18 19 18 17 15 14 12 10 9 9 10 11 12 14 16 17 19 21 22 24 26 28 29 30 30 29 28 28 28 28 28 28 29 29 29 30 30 31 31
20 19 19 20 20 19 18 16 14 13 11 11 11 11 12 13 15 17 18 20 21 23 24 26 28 29 30 31 30 30 29 29 29 29 29 29 29 29 30 31 31 32
22 21 22 22 21 20 19 17 15 14 13 13 13 13 14 15 16 17 19 20 21 23 25 26 28 29 31 32 31 30 30 29 29 29 29 29 29 30 30 31 31 32
24 24 24 23 22 22 20 18 16 16 15 15 15 15 16 16 18 19 20 21 22 23 25 27 28 29 31 32 31 30 30 30 30 30 29 29 29 30 30 30 31 32
25 26 25 25 24 23 22 19 18 18 18 18 18 18 18 19 19 20 21 22 23 24 27 27 28 30 31 32 31 29 29 30 30 30 29 29 29 29 30 30 31 32
27 27 27 26 25 24 23 20 20 20 21 21 20 20 21 21 21 22 22 23 24 26 27 28 29 30 31 31 30 29 29 30 30 30 29 29 29 29 30 30 31 32
27 27 27 27 26 25 24 22 22 23 23 23 22 23 23 23 23 24 24 24 25 27 28 29 29 30 31 31 30 29 29 30 30 30 30 30 29 29 30 31 32 33
27 28 28 28 27 26 25 25 25 25 25 25 25 26 26 25 25 25 25 25 26 28 30 30 29 31 31 31 30 30 30 30 30 30 30 30 30 30 31 31 32 33
27 28 28 28 28 28 27 27 27 28 28 28 29 29 28 27 27 26 26 27 28 29 31 30 30 31 31 30 30 30 30 30 30 30 30 30 31 31 32 32 33 34
27 27 27 28 28 29 29 29 30 30 31 31 31 31 30 28 28 27 27 28 29 30 31 31 31 31 31 30 30 30 31 31 31 31 31 32 32 33 33 34 35 35
24 25 26 27 28 29 30 31 32 33 33 33 32 32 30 29 28 28 28 29 30 31 32 32 32 31 30 30 30 30 31 31 31 32 32 33 34 34 35 36 36 36
22 23 25 26 27 29 30 31 32 33 33 33 32 31 30 29 28 28 29 30 31 31 32 33 32 31 30 30 30 30 30 31 32 32 33 34 34 35 36 36 36 36
21 22 23 24 24 25 26 28 29 29 30 30 30 30 29 29 29 29 30 31 31 31 32 33 32 31 30 30 29 29 30 30 31 32 33 34 35 35 36 36 36 36
19 19 19 19 20 22 23 24 25 26 27 28 28 29 29 29 29 30 31 31 31 32 32 32 31 30 30 30 29 29 29 29 30 32 32 33 34 34 36 36 36 36